BGGH

Godthaab / Nuuk  Airport

Nuuk, Greenland
Issued Wind Visibility Ceiling Temperature Dew Point Humidity Barometer
Nov-18
03:50 UTC
080°
2 KTS
  Overcast
3,000' AGL
-5° C
23° F
-5° C
23° F
100% 30.27" Hg
1025 hPa
Nov-18
02:50 UTC
220°
3 KTS
  Overcast
1,500' AGL
-4° C
25° F
-5° C
23° F
93% 30.27" Hg
1025 hPa
Nov-18
01:50 UTC
  Overcast
2,000' AGL
-5° C
23° F
-5° C
23° F
100% 30.27" Hg
1025 hPa
Nov-18
00:50 UTC
  Overcast
1,100' AGL
-5° C
23° F
-5° C
23° F
100% 30.27" Hg
1025 hPa
Nov-17
23:50 UTC
070°
1 KTS
  Overcast
1,500' AGL
-5° C
23° F
-6° C
21° F
93% 30.24" Hg
1024 hPa
Nov-17
22:50 UTC
090°
4 KTS
  Broken
3,800' AGL
-5° C
23° F
-7° C
19° F
86% 30.24" Hg
1024 hPa
Nov-17
21:50 UTC
070°
12 KTS
7,001 meters Broken
3,000' AGL
-5° C
23° F
-8° C
18° F
80% 30.21" Hg
1023 hPa
MVFR
Nov-17
20:50 UTC
080°
13 KTS
2,993 meters Broken
2,800' AGL
-5° C
23° F
-8° C
18° F
80% 30.21" Hg
1023 hPa
IFR
Nov-17
19:50 UTC
070°
16 KTS
10,000+ meters Broken
4,000' AGL
-5° C
23° F
-9° C
16° F
74% 30.21" Hg
1023 hPa
VFR
Nov-17
18:50 UTC
070°
16 KTS
10,000+ meters Broken
4,000' AGL
-5° C
23° F
-9° C
16° F
74% 30.18" Hg
1022 hPa
VFR
Nov-17
17:50 UTC
080°
14 KTS
10,000+ meters Broken
4,000' AGL
-5° C
23° F
-10° C
14° F
68% 30.18" Hg
1022 hPa
VFR
Nov-17
16:50 UTC
080°
16 KTS
10,000+ meters Broken
4,000' AGL
-5° C
23° F
-10° C
14° F
68% 30.18" Hg
1022 hPa
VFR
Nov-17
15:50 UTC
060°
10 KTS
10,000+ meters Broken
6,000' AGL
-5° C
23° F
-11° C
12° F
63% 30.15" Hg
1021 hPa
VFR
Nov-17
14:50 UTC
070°
16 KTS
10,000+ meters Broken
9,200' AGL
-5° C
23° F
-11° C
12° F
63% 30.15" Hg
1021 hPa
VFR
Nov-17
13:50 UTC
080°
17 KTS
10,000+ meters Broken
10,000' AGL
-5° C
23° F
-10° C
14° F
68% 30.15" Hg
1021 hPa
VFR
Nov-17
12:50 UTC
070°
13 KTS
10,000+ meters   -6° C
21° F
-11° C
12° F
68% 30.15" Hg
1021 hPa
VFR
Nov-17
11:50 UTC
070°
6 KTS
10,000+ meters Broken
10,000' AGL
-6° C
21° F
-11° C
12° F
68% 30.12" Hg
1020 hPa
VFR
Nov-17
10:50 UTC
080°
13 KTS
10,000+ meters   -6° C
21° F
-11° C
12° F
68% 30.12" Hg
1020 hPa
VFR
Nov-17
08:50 UTC
080°
16 KTS
    -7° C
19° F
-12° C
10° F
68% 30.09" Hg
1019 hPa
Nov-17
07:50 UTC
070°
17 KTS
    -8° C
18° F
-12° C
10° F
73% 30.09" Hg
1019 hPa
Nov-17
06:50 UTC
080°
17 KTS
    -7° C
19° F
-13° C
F
63% 30.09" Hg
1019 hPa
Nov-17
05:50 UTC
090°
10 KTS
    -7° C
19° F
-13° C
F
63% 30.06" Hg
1018 hPa
Nov-17
04:50 UTC
100°
4 KTS
    -7° C
19° F
-15° C
F
53% 30.06" Hg
1018 hPa